KC0OOO-WX Weather Reports


Display with metric or nautical units.
time (UTC)temp
F
wind
direction
speed
MPH
gust
MPH
rain 1hr
in
rain 24hr
in
rain mn
in
humidity
%
barometer
mb
20260505053133 44 279 0.0 15.0 0.00 0.00 0.00 50 1015.2
20260505052132 45 279 0.0 15.0 0.00 0.00 0.00 48 1015.2
20260505051132 45 279 0.0 15.0 0.00 0.00 0.00 47 1015.2
20260505050132 46 279 0.0 15.0 0.00 0.00 0.00 46 1015.2
20260505041132 48 280 0.0 15.0 0.00 0.00 0.00 43 1015.2
20260505040132 48 280 0.0 15.0 0.00 0.00 0.00 42 1015.2
20260505035132 49 280 0.0 15.0 0.00 0.00 0.00 40 1015.2
20260505034132 49 280 0.0 15.0 0.00 0.00 0.00 40 1015.2
20260505033132 50 281 0.0 15.0 0.00 0.00 0.00 39 1015.2
20260505032132 50 280 0.0 15.0 0.00 0.00 0.00 40 1015.2
20260505031132 51 280 1.0 15.0 0.00 0.00 0.00 38 1014.9
20260505030132 51 280 1.0 15.0 0.00 0.00 0.00 37 1014.9
20260505025102 52 280 1.0 15.0 0.00 0.00 0.00 38 1014.9
20260505024102 52 280 1.0 15.0 0.00 0.00 0.00 37 1014.9
20260505023102 53 280 1.0 15.0 0.00 0.00 0.00 37 1014.9
20260505022102 54 280 1.0 15.0 0.00 0.00 0.00 36 1014.9
20260505021102 55 280 1.0 15.0 0.00 0.00 0.00 34 1014.9
20260505015102 57 281 0.0 15.0 0.00 0.00 0.00 32 1014.6
20260505014102 58 281 0.0 15.0 0.00 0.00 0.00 30 1014.6
20260505013102 58 280 1.0 15.0 0.00 0.00 0.00 27 1014.6
20260505012102 59 316 0.0 15.0 0.00 0.00 0.00 26 1014.6
20260505011102 59 249 0.0 15.0 0.00 0.00 0.00 28 1014.9
20260505010032 59 265 1.0 15.0 0.00 0.00 0.00 26 1014.9
20260505005032 60 270 2.0 15.0 0.00 0.00 0.00 26 1015.2
20260505004032 60 315 2.0 15.0 0.00 0.00 0.00 26 1015.2
20260505003032 61 269 5.0 15.0 0.00 0.00 0.00 24 1015.2
20260505002031 61 171 2.0 15.0 0.00 0.00 0.00 24 1015.2
20260505001032 61 248 2.0 15.0 0.00 0.00 0.00 25 1015.2
20260505000031 62 219 1.0 15.0 0.00 0.00 0.00 26 1015.2
20260504235031 63 259 5.0 15.0 0.00 0.00 0.00 24 1015.2
20260504234031 64 237 5.0 15.0 0.00 0.00 0.00 24 1015.2
20260504233031 63 181 5.0 15.0 0.00 0.00 0.00 25 1014.9
20260504232031 63 201 2.0 15.0 0.00 0.00 0.00 26 1015.2
20260504231031 63 131 1.0 15.0 0.00 0.00 0.00 26 1015.2
20260504230031 62 212 5.0 15.0 0.00 0.00 0.00 26 1015.2
20260504225031 63 231 1.0 15.0 0.00 0.00 0.00 28 1015.2
20260504224031 63 251 2.0 15.0 0.00 0.00 0.00 27 1015.2
20260504223031 63 326 3.0 15.0 0.00 0.00 0.00 27 1015.2
20260504222031 63 256 2.0 15.0 0.00 0.00 0.00 27 1015.2
20260504221031 64 298 7.0 15.0 0.00 0.00 0.00 25 1015.6
20260504220031 66 210 3.0 15.0 0.00 0.00 0.00 26 1015.6
20260504215031 64 210 1.0 15.0 0.00 0.00 0.00 29 1015.9
20260504214031 66 282 5.0 15.0 0.00 0.00 0.00 27 1015.9
20260504213031 64 231 3.0 13.0 0.00 0.00 0.00 30 1016.3
20260504212031 63 270 5.0 13.0 0.00 0.00 0.00 28 1016.3
20260504211031 63 256 6.0 13.0 0.00 0.00 0.00 29 1016.6
20260504210031 63 293 2.0 13.0 0.00 0.00 0.00 33 1016.6
20260504205030 62 204 2.0 13.0 0.00 0.00 0.00 32 1016.9
20260504204030 62 220 5.0 13.0 0.00 0.00 0.00 32 1016.9
20260504203030 63 289 6.0 13.0 0.00 0.00 0.00 34 1016.6
20260504202030 64 302 1.0 13.0 0.00 0.00 0.00 34 1016.6
20260504201030 63 191 2.0 13.0 0.00 0.00 0.00 34 1016.6
20260504200030 62 33 2.0 13.0 0.00 0.00 0.00 35 1016.6
20260504195030 61 267 2.0 13.0 0.00 0.00 0.00 36 1016.9
20260504194030 62 234 2.0 13.0 0.00 0.00 0.00 36 1016.9
20260504193030 61 149 1.0 13.0 0.00 0.00 0.00 40 1017.3
20260504192030 61 233 1.0 13.0 0.00 0.00 0.00 39 1017.3
20260504191030 60 253 3.0 13.0 0.00 0.00 0.00 39 1017.6
20260504190030 61 257 3.0 12.0 0.00 0.00 0.00 39 1017.6
20260504185030 60 170 1.0 9.0 0.00 0.00 0.00 42 1017.6
20260504184030 60 218 2.0 9.0 0.00 0.00 0.00 40 1017.6
20260504183030 60 229 2.0 8.0 0.00 0.00 0.00 42 1017.6
20260504182030 60 301 3.0 8.0 0.00 0.00 0.00 42 1017.6
20260504181030 60 262 3.0 8.0 0.00 0.00 0.00 40 1017.9
20260504180030 60 211 1.0 8.0 0.00 0.00 0.00 42 1017.9
20260504175030 60 174 2.0 5.0 0.00 0.00 0.00 47 1018.3
20260504174030 60 239 1.0 4.0 0.00 0.00 0.00 43 1018.3
20260504173030 59 154 1.0 4.0 0.00 0.00 0.00 46 1018.3
20260504172030 58 327 1.0 4.0 0.00 0.00 0.00 48 1018.3
20260504171030 57 206 0.0 4.0 0.00 0.00 0.00 50 1018.3
20260504150929 49 64 0.0 4.0 0.00 0.00 0.00 67 1019.0
20260504140929 45 350 0.0 4.0 0.00 0.00 0.00 73 1018.6
20260504081758 48 236 0.0 4.0 0.00 0.00 0.00 56 1018.6
20260504080758 48 250 0.0 4.0 0.00 0.00 0.00 52 1019.3